Location: Kitt Peak
(31.9639°N, 111.5992°W)
Time: 14:10:31
(UTC-07:00)

SRMSAT - Pass Details

Date: 20 December 2025
Orbit: 846 x 863 km, 20.0° (Epoch: 13 January)

Event Time Altitude Azimuth Distance (km) Brightness Sun altitude
Exits shadow 05:28:45 19° 216° (SW) 1,896 ? -23.4°
Maximum altitude 05:30:57 24° 185° (S) 1,693 ? -22.9°
Drops below altitude 10° 05:35:33 10° 134° (SE) 2,462 ? -22.0°
Sets 05:38:36 0° 120° (ESE) 3,400 ? -21.4°
